Location: Artiguedieu
(43.5000°N, 0.5454°E)
Time: 12:25:03
(UTC+00:00)

CZ-2C R/B - Pass Details

Date: 06 December 2020
Orbit: 785 x 870 km, 98.2° (Epoch: 27 January)

Event Time Altitude Azimuth Distance (km) Brightness Sun altitude
Rises 05:57:32 0° 150° (SSE) 3,383 6.6 -13.8°
Reaches altitude 10° 05:59:57 10° 145° (SE) 2,440 5.9 -13.4°
Maximum altitude 06:05:10 51° 71° (ENE) 1,027 3.5 -12.5°
Drops below altitude 10° 06:10:17 10° 357° (N) 2,402 4.8 -11.6°
Sets 06:12:40 0° 352° (N) 3,326 5.5 -11.2°
